• In Deutschland
  • Länderverzeichnis
  • Für 7 Tage
  • Wassertemperatur
  • Satellitenkarten
  • Wetterkarte
  • Widgets
  • user-avatar
    Anmelden

    Stündliche Wetter Bad Grönenbach

    Heute, 23 Oktober, Montag

    Zeit Temperatur Niederschläge Wind Luftdruck Luftfeuchtigkeit
    00:00 +4°C° 0,3 mm 4 m/S 702 mmHg 94%
    01:00 +4°C° 0 mm 3 m/S 701 mmHg 94%
    02:00 +4°C° 0,4 mm 4 m/S 701 mmHg 95%
    03:00 +4°C° 0,4 mm 4 m/S 701 mmHg 95%
    04:00 +4°C° 0,4 mm 4 m/S 701 mmHg 95%
    05:00 +4°C° 0,3 mm 4 m/S 702 mmHg 95%
    06:00 +4°C° 0,3 mm 3 m/S 702 mmHg 95%
    07:00 +4°C° 0 mm 3 m/S 702 mmHg 95%
    08:00 +4°C° 0,3 mm 3 m/S 702 mmHg 94%
    09:00 +4°C° 0,3 mm 3 m/S 702 mmHg 92%
    10:00 +5°C° 0,3 mm 4 m/S 703 mmHg 91%
    11:00 +5°C° 0,4 mm 4 m/S 703 mmHg 90%
    12:00 +6°C° 0,4 mm 4 m/S 703 mmHg 89%
    13:00 +6°C° 0,4 mm 4 m/S 703 mmHg 88%
    14:00 +7°C° 0,5 mm 3 m/S 703 mmHg 88%
    15:00 +7°C° 0,5 mm 3 m/S 704 mmHg 89%
    16:00 +7°C° 0,5 mm 3 m/S 704 mmHg 89%
    17:00 +7°C° 0,3 mm 3 m/S 704 mmHg 91%
    18:00 +5°C° 0,3 mm 3 m/S 704 mmHg 92%
    19:00 +5°C° 0,3 mm 3 m/S 705 mmHg 94%
    20:00 +5°C° 0,5 mm 3 m/S 705 mmHg 94%
    21:00 +5°C° 0,5 mm 3 m/S 705 mmHg 95%
    22:00 +5°C° 0,5 mm 3 m/S 706 mmHg 95%
    23:00 +5°C° 0,5 mm 3 m/S 706 mmHg 96%

    Morgen, 24 Oktober, Dienstag

    Zeit Temperatur Niederschläge Wind Luftdruck Luftfeuchtigkeit
    00:00 +5°C° 0,5 mm 3 m/S 706 mmHg 96%
    01:00 +5°C° 0,5 mm 3 m/S 706 mmHg 96%
    02:00 +5°C° 0,1 mm 3 m/S 706 mmHg 95%
    03:00 +5°C° 0,1 mm 3 m/S 706 mmHg 95%
    04:00 +5°C° 0,1 mm 3 m/S 706 mmHg 95%
    05:00 +5°C° 0 mm 2 m/S 707 mmHg 94%
    06:00 +5°C° 0 mm 2 m/S 707 mmHg 93%
    07:00 +5°C° 0 mm 2 m/S 707 mmHg 92%
    08:00 +6°C° 0 mm 2 m/S 707 mmHg 91%
    09:00 +7°C° 0 mm 2 m/S 707 mmHg 90%
    10:00 +7°C° 0 mm 2 m/S 707 mmHg 89%
    11:00 +8°C° 0 mm 2 m/S 707 mmHg 86%
    12:00 +9°C° 0 mm 2 m/S 707 mmHg 83%
    13:00 +10°C° 0 mm 2 m/S 707 mmHg 80%
    14:00 +12°C° 0 mm 2 m/S 707 mmHg 81%
    15:00 +12°C° 0 mm 1 m/S 707 mmHg 82%
    16:00 +12°C° 0 mm 1 m/S 707 mmHg 82%
    17:00 +11°C° 0 mm 1 m/S 707 mmHg 85%
    18:00 +8°C° 0 mm 2 m/S 707 mmHg 88%
    19:00 +7°C° 0 mm 2 m/S 707 mmHg 90%
    20:00 +7°C° 0 mm 2 m/S 707 mmHg 89%
    21:00 +7°C° 0 mm 2 m/S 707 mmHg 88%
    22:00 +7°C° 0 mm 2 m/S 707 mmHg 87%
    23:00 +7°C° 0 mm 2 m/S 707 mmHg 86%

    übermorgen, 25 Oktober, Mittwoch

    Zeit Temperatur Niederschläge Wind Luftdruck Luftfeuchtigkeit
    00:00 +7°C° 0 mm 2 m/S 707 mmHg 84%
    01:00 +7°C° 0 mm 2 m/S 707 mmHg 82%
    02:00 +7°C° 0 mm 2 m/S 707 mmHg 83%
    03:00 +7°C° 0 mm 2 m/S 706 mmHg 84%
    04:00 +7°C° 0 mm 2 m/S 706 mmHg 85%
    05:00 +6°C° 0 mm 2 m/S 706 mmHg 85%
    06:00 +7°C° 0 mm 1 m/S 706 mmHg 85%
    07:00 +7°C° 0 mm 1 m/S 706 mmHg 86%
    08:00 +9°C° 0 mm 1 m/S 706 mmHg 82%
    09:00 +11°C° 0 mm 1 m/S 707 mmHg 79%
    10:00 +13°C° 0 mm 1 m/S 707 mmHg 75%
    11:00 +15°C° 0 mm 1 m/S 707 mmHg 72%
    12:00 +16°C° 0 mm 1 m/S 707 mmHg 70%
    13:00 +17°C° 0 mm 2 m/S 707 mmHg 68%
    14:00 +18°C° 0 mm 1 m/S 707 mmHg 72%
    15:00 +16°C° 0 mm 1 m/S 707 mmHg 76%
    16:00 +16°C° 0 mm 1 m/S 707 mmHg 80%
    17:00 +14°C° 0 mm 1 m/S 707 mmHg 83%
    18:00 +12°C° 0 mm 1 m/S 707 mmHg 86%
    19:00 +11°C° 0 mm 1 m/S 707 mmHg 89%
    20:00 +10°C° 0 mm 1 m/S 708 mmHg 89%
    21:00 +10°C° 0 mm 1 m/S 708 mmHg 89%
    22:00 +10°C° 0 mm 1 m/S 708 mmHg 89%
    23:00 +10°C° 0 mm 1 m/S 708 mmHg 88%

    26 Oktober, Donnerstag

    Zeit Temperatur Niederschläge Wind Luftdruck Luftfeuchtigkeit
    00:00 +9°C° 0 mm 1 m/S 708 mmHg 88%
    01:00 +9°C° 0 mm 1 m/S 708 mmHg 87%
    02:00 +9°C° 0 mm 1 m/S 708 mmHg 86%
    03:00 +8°C° 0 mm 2 m/S 707 mmHg 86%
    04:00 +8°C° 0 mm 2 m/S 707 mmHg 85%
    05:00 +8°C° 0 mm 2 m/S 707 mmHg 84%
    06:00 +8°C° 0 mm 2 m/S 707 mmHg 83%
    07:00 +8°C° 0 mm 2 m/S 707 mmHg 82%
    08:00 +10°C° 0 mm 2 m/S 708 mmHg 78%
    09:00 +13°C° 0 mm 2 m/S 708 mmHg 74%
    10:00 +15°C° 0 mm 2 m/S 708 mmHg 71%
    11:00 +16°C° 0 mm 2 m/S 708 mmHg 67%
    12:00 +17°C° 0 mm 2 m/S 708 mmHg 64%
    13:00 +18°C° 0 mm 2 m/S 708 mmHg 61%
    14:00 +18°C° 0 mm 2 m/S 708 mmHg 66%
    15:00 +17°C° 0 mm 2 m/S 708 mmHg 71%
    16:00 +16°C° 0 mm 1 m/S 707 mmHg 75%
    17:00 +15°C° 0 mm 2 m/S 707 mmHg 78%
    18:00 +13°C° 0 mm 2 m/S 707 mmHg 80%
    19:00 +10°C° 0 mm 2 m/S 707 mmHg 82%
    20:00 +10°C° 0 mm 2 m/S 707 mmHg 81%
    21:00 +10°C° 0 mm 2 m/S 707 mmHg 79%
    22:00 +10°C° 0 mm 2 m/S 707 mmHg 78%
    23:00 +9°C° 0 mm 2 m/S 707 mmHg 78%

    27 Oktober, Freitag

    Zeit Temperatur Niederschläge Wind Luftdruck Luftfeuchtigkeit
    00:00 +9°C° 0 mm 2 m/S 707 mmHg 77%
    01:00 +9°C° 0 mm 2 m/S 706 mmHg 77%
    02:00 +9°C° 0 mm 2 m/S 706 mmHg 77%
    03:00 +9°C° 0 mm 3 m/S 706 mmHg 77%
    04:00 +9°C° 0 mm 3 m/S 706 mmHg 77%
    05:00 +9°C° 0 mm 3 m/S 706 mmHg 76%
    06:00 +9°C° 0 mm 3 m/S 706 mmHg 76%
    07:00 +9°C° 0 mm 3 m/S 706 mmHg 75%
    08:00 +11°C° 0 mm 3 m/S 705 mmHg 74%
    09:00 +12°C° 0 mm 4 m/S 705 mmHg 73%
    10:00 +13°C° 0 mm 4 m/S 705 mmHg 72%
    11:00 +14°C° 0 mm 5 m/S 705 mmHg 71%
    12:00 +14°C° 0 mm 5 m/S 705 mmHg 70%
    13:00 +15°C° 0 mm 5 m/S 705 mmHg 69%
    14:00 +14°C° 0,2 mm 5 m/S 704 mmHg 75%
    15:00 +13°C° 0,2 mm 4 m/S 704 mmHg 81%
    16:00 +12°C° 0,2 mm 4 m/S 704 mmHg 86%
    17:00 +11°C° 1,5 mm 4 m/S 704 mmHg 89%
    18:00 +10°C° 1,5 mm 4 m/S 704 mmHg 92%
    19:00 +8°C° 1,5 mm 4 m/S 704 mmHg 95%
    20:00 +8°C° 1,2 mm 3 m/S 705 mmHg 96%
    21:00 +7°C° 1,2 mm 3 m/S 705 mmHg 96%
    22:00 +6°C° 1,2 mm 2 m/S 705 mmHg 96%
    23:00 +6°C° 0,1 mm 2 m/S 705 mmHg 96%

    28 Oktober, Samstag

    Zeit Temperatur Niederschläge Wind Luftdruck Luftfeuchtigkeit
    00:00 +7°C° 0,1 mm 1 m/S 706 mmHg 96%
    01:00 +6°C° 0,1 mm 1 m/S 706 mmHg 97%
    02:00 +6°C° 0,1 mm 1 m/S 706 mmHg 97%
    03:00 +6°C° 0,1 mm 1 m/S 706 mmHg 97%
    04:00 +5°C° 0,1 mm 2 m/S 706 mmHg 97%
    05:00 +4°C° 0 mm 2 m/S 706 mmHg 97%
    06:00 +4°C° 0 mm 2 m/S 706 mmHg 97%
    07:00 +4°C° 0 mm 2 m/S 706 mmHg 96%
    08:00 +4°C° 0 mm 2 m/S 706 mmHg 93%
    09:00 +4°C° 0 mm 3 m/S 707 mmHg 90%
    10:00 +5°C° 0 mm 3 m/S 707 mmHg 87%
    11:00 +7°C° 0 mm 3 m/S 706 mmHg 83%
    12:00 +6°C° 0 mm 4 m/S 706 mmHg 79%
    13:00 +7°C° 0 mm 4 m/S 706 mmHg 76%
    14:00 +6°C° 0 mm 4 m/S 706 mmHg 76%
    15:00 +7°C° 0 mm 3 m/S 706 mmHg 77%
    16:00 +7°C° 0 mm 3 m/S 706 mmHg 77%
    17:00 +7°C° 0,1 mm 3 m/S 706 mmHg 79%
    18:00 +5°C° 0,1 mm 3 m/S 706 mmHg 82%
    19:00 +5°C° 0,1 mm 3 m/S 706 mmHg 84%
    20:00 +4°C° 0 mm 3 m/S 707 mmHg 86%
    21:00 +4°C° 0 mm 3 m/S 707 mmHg 88%
    22:00 +4°C° 0 mm 3 m/S 707 mmHg 89%
    23:00 +4°C° 0 mm 3 m/S 707 mmHg 90%

    29 Oktober, Sonntag

    Zeit Temperatur Niederschläge Wind Luftdruck Luftfeuchtigkeit
    00:00 +3°C° 0 mm 3 m/S 707 mmHg 90%
    01:00 +3°C° 0 mm 3 m/S 707 mmHg 91%
    02:00 +3°C° 0 mm 3 m/S 706 mmHg 91%
    03:00 +3°C° 0 mm 3 m/S 706 mmHg 91%
    04:00 +3°C° 0 mm 3 m/S 706 mmHg 91%
    05:00 +3°C° 0 mm 3 m/S 706 mmHg 90%
    06:00 +3°C° 0 mm 3 m/S 706 mmHg 90%
    07:00 +3°C° 0 mm 3 m/S 706 mmHg 89%
    08:00 +4°C° 0 mm 3 m/S 706 mmHg 85%
    09:00 +5°C° 0 mm 3 m/S 705 mmHg 80%
    10:00 +7°C° 0 mm 3 m/S 705 mmHg 76%
    11:00 +8°C° 0 mm 3 m/S 705 mmHg 74%
    12:00 +8°C° 0 mm 3 m/S 704 mmHg 72%
    13:00 +8°C° 0 mm 4 m/S 704 mmHg 71%
    14:00 +8°C° 0,2 mm 3 m/S 703 mmHg 77%
    15:00 +8°C° 0,2 mm 3 m/S 703 mmHg 83%
    16:00 +7°C° 0,2 mm 3 m/S 703 mmHg 89%
    17:00 +5°C° 0 mm 3 m/S 703 mmHg 90%
    18:00 +5°C° 0 mm 3 m/S 703 mmHg 91%
    19:00 +4°C° 0 mm 3 m/S 703 mmHg 92%
    20:00 +4°C° 0 mm 3 m/S 702 mmHg 91%
    21:00 +4°C° 0 mm 4 m/S 702 mmHg 91%
    22:00 +4°C° 0 mm 4 m/S 702 mmHg 91%
    23:00 +4°C° 0,2 mm 4 m/S 701 mmHg 90%
    Mehr zeigen